EW7146 Weather Reports


time (UTC)temp
F
wind
direction
speed
knots
gust
knots
rain 1hr
in
rain 24hr
in
rain mn
in
humidity
%
barometer
mb
20260502130406 42 214 1.7 1.7 0.00 0.00 0.00 82 1030.1
20260502123404 44 219 0.0 0.9 0.00 0.00 0.00 80 1030.2
20260502122907 43 207 0.9 0.9 0.00 0.00 0.00 81 1030.1
20260502122407 43 217 0.0 0.0 0.00 0.00 0.00 79 1030.2
20260502121905 44 223 0.0 0.0 0.00 0.00 0.00 78 1030.2
20260502121405 44 223 0.0 0.0 0.00 0.00 0.00 78 1030.1
20260502120905 44 223 0.0 0.0 0.00 0.00 0.00 77 1030.1
20260502120402 45 259 0.0 0.0 0.00 0.00 0.00 76 1030.1
20260502115901 45 259 0.0 0.0 0.00 0.00 0.00 75 1030.1
20260502115402 46 259 0.0 0.9 0.00 0.00 0.00 74 1030.0
20260502114905 46 210 0.0 1.7 0.00 0.00 0.00 73 1030.0
20260502114406 46 200 0.9 1.7 0.00 0.00 0.00 74 1029.9
20260502113905 46 245 0.0 1.7 0.00 0.00 0.00 73 1029.9
20260502113404 47 219 0.9 1.7 0.00 0.00 0.00 73 1029.9
20260502112901 47 204 0.0 0.9 0.00 0.00 0.00 73 1029.9
20260502112400 47 204 0.0 0.9 0.00 0.00 0.00 73 1029.8
20260502111901 47 212 0.0 0.0 0.00 0.00 0.00 72 1029.9
20260502111400 47 230 0.0 0.0 0.00 0.00 0.00 72 1029.9
20260502110902 47 230 0.0 0.0 0.00 0.00 0.00 72 1029.8
20260502110623 47 247 0.0 0.0 0.00 0.00 0.00 72 1029.8
20260502105904 47 244 0.0 0.0 0.00 0.00 0.00 72 1029.8
20260502105403 47 248 0.0 0.0 0.00 0.00 0.00 71 1029.7
20260502104903 48 248 0.0 0.0 0.00 0.00 0.00 71 1029.7
20260502104631 48 248 0.0 0.9 0.00 0.00 0.00 70 1029.7
20260502104122 48 264 0.0 0.9 0.00 0.00 0.00 70 1029.6
20260502103401 48 226 0.0 0.0 0.00 0.00 0.00 70 1029.8
20260502102859 49 217 0.0 0.9 0.00 0.00 0.00 69 1029.8
20260502102402 49 175 0.0 2.6 0.00 0.00 0.00 69 1029.7
20260502102127 49 175 0.9 2.6 0.00 0.00 0.00 69 1029.7
20260502101402 48 235 0.0 1.7 0.00 0.00 0.00 69 1029.7
20260502100902 48 228 0.0 0.0 0.00 0.00 0.00 69 1029.6
20260502100403 49 228 0.0 2.6 0.00 0.00 0.00 68 1029.5
20260502090901 49 233 0.0 2.6 0.00 0.00 0.00 68 1029.3
20260502090358 50 244 0.9 2.6 0.00 0.00 0.00 67 1029.3
20260502071358 55 227 0.0 1.7 0.00 0.00 0.00 59 1028.9
20260502070859 55 226 0.9 1.7 0.00 0.00 0.00 59 1028.8
20260502070358 55 228 0.0 1.7 0.00 0.00 0.00 60 1028.8
20260502065858 55 226 0.0 0.0 0.00 0.00 0.00 60 1028.9
20260502065359 55 226 0.0 0.0 0.00 0.00 0.00 59 1028.9
20260502064858 55 226 0.0 1.7 0.00 0.00 0.00 57 1028.9
20260502064359 55 226 0.0 1.7 0.00 0.00 0.00 58 1028.8
20260502063859 55 230 0.0 0.0 0.00 0.00 0.00 58 1028.8
20260502063357 55 241 0.0 0.0 0.00 0.00 0.00 59 1028.9
20260502062857 55 245 0.0 0.0 0.00 0.00 0.00 59 1028.7
20260502062624 55 243 0.0 0.0 0.00 0.00 0.00 58 1028.8
20260502061857 56 168 0.0 0.0 0.00 0.00 0.00 58 1028.7
20260502061624 56 252 0.0 0.0 0.00 0.00 0.00 58 1028.8
20260502060857 56 219 0.0 0.0 0.00 0.00 0.00 58 1028.7
20260502060358 56 220 0.0 0.0 0.00 0.00 0.00 58 1028.7
20260502055856 56 203 0.0 0.0 0.00 0.00 0.00 58 1028.7
20260502055356 56 252 0.0 0.0 0.00 0.00 0.00 58 1028.8
20260502055118 56 252 0.0 0.0 0.00 0.00 0.00 58 1028.7
20260502054357 56 252 0.0 0.0 0.00 0.00 0.00 58 1028.7
20260502053856 56 252 0.0 0.0 0.00 0.00 0.00 57 1028.6
20260502053356 56 252 0.0 0.0 0.00 0.00 0.00 57 1028.6
20260502052857 57 235 0.0 0.0 0.00 0.00 0.00 57 1028.5
20260502051858 56 226 0.0 0.0 0.00 0.00 0.00 57 1028.5
20260502051356 56 224 0.0 0.0 0.00 0.00 0.00 58 1028.5
20260502050856 55 224 0.0 0.0 0.00 0.00 0.00 58 1028.5
20260502050356 56 230 0.0 0.0 0.00 0.00 0.00 58 1028.5
20260502045855 56 230 0.0 0.0 0.00 0.00 0.00 57 1028.5
20260502045355 56 230 0.0 0.0 0.00 0.00 0.00 57 1028.4
20260502044855 55 223 0.0 0.9 0.00 0.00 0.00 57 1028.3
20260502044356 56 244 0.0 0.9 0.00 0.00 0.00 58 1028.3
20260502043855 56 265 0.0 0.0 0.00 0.00 0.00 57 1028.2
20260502043356 56 265 0.0 0.0 0.00 0.00 0.00 55 1028.3
20260502043333 56 265 0.0 0.0 0.00 0.00 0.00 55 1028.1
20260502042354 56 265 0.0 0.9 0.00 0.00 0.00 56 1028.1
20260502042120 56 265 0.0 0.9 0.00 0.00 0.00 55 1028.0
20260502041354 57 274 0.0 1.7 0.00 0.00 0.00 55 1027.8
20260502040855 57 217 0.0 1.7 0.00 0.00 0.00 55 1027.8
20260502040354 58 217 0.0 0.0 0.00 0.00 0.00 54 1027.8
20260502035855 59 217 0.0 0.0 0.00 0.00 0.00 53 1027.6
20260502035354 60 210 0.0 0.0 0.00 0.00 0.00 52 1027.6
20260502034855 61 210 0.0 0.0 0.00 0.00 0.00 50 1027.3
20260502034353 61 210 0.0 0.9 0.00 0.00 0.00 47 1027.2
20260502033858 62 210 0.0 2.6 0.00 0.00 0.00 47 1027.2
20260502033614 62 185 0.9 3.5 0.00 0.00 0.00 47 1027.2
20260502032854 62 221 1.7 3.5 0.00 0.00 0.00 48 1027.1
20260502032354 62 224 0.0 0.9 0.00 0.00 0.00 49 1027.0
20260502031853 62 227 0.0 1.7 0.00 0.00 0.00 48 1027.0
20260502031354 63 227 0.0 1.7 0.00 0.00 0.00 47 1026.9
20260502031122 64 220 0.9 1.7 0.00 0.00 0.00 46 1026.9
20260502030616 64 197 0.9 1.7 0.00 0.00 0.00 44 1026.9
20260502025852 65 178 0.9 1.7 0.00 0.00 0.00 43 1026.8
20260502025353 65 166 0.0 0.9 0.00 0.00 0.00 43 1026.8
20260502025113 66 125 0.0 0.0 0.00 0.00 0.00 42 1026.7
20260502024621 67 125 0.0 0.0 0.00 0.00 0.00 43 1026.7
20260502023852 68 116 0.0 0.0 0.00 0.00 0.00 42 1026.7
20260502023616 69 116 0.0 0.0 0.00 0.00 0.00 41 1026.6
20260502022852 70 116 0.0 0.9 0.00 0.00 0.00 38 1026.6
20260502022351 71 116 0.0 0.9 0.00 0.00 0.00 34 1026.6
20260502022114 71 116 0.0 0.9 0.00 0.00 0.00 32 1026.5
20260502021351 71 116 0.0 0.0 0.00 0.00 0.00 33 1026.6
20260502021117 72 116 0.0 0.9 0.00 0.00 0.00 34 1026.6
20260502020352 72 116 0.0 1.7 0.00 0.00 0.00 33 1026.5
20260502015852 72 117 0.0 2.6 0.00 0.00 0.00 31 1026.5
20260502015620 72 125 0.0 2.6 0.00 0.00 0.00 31 1026.6
20260502014850 73 141 1.7 2.6 0.00 0.00 0.00 30 1026.6
20260502014351 73 134 0.9 4.3 0.00 0.00 0.00 31 1026.6
20260502013850 73 142 1.7 5.2 0.00 0.00 0.00 29 1026.6
20260502013352 73 113 1.7 5.2 0.00 0.00 0.00 30 1026.6
20260502012850 73 140 2.6 6.1 0.00 0.00 0.00 28 1026.6
20260502012351 74 130 3.5 6.1 0.00 0.00 0.00 28 1026.6
20260502012341 74 142 4.3 8.7 0.00 0.00 0.00 28 1026.6
20260502011350 74 107 4.3 8.7 0.00 0.00 0.00 28 1026.7
20260502010852 74 134 4.3 7.8 0.00 0.00 0.00 27 1026.7
20260502010350 74 133 3.5 7.8 0.00 0.00 0.00 27 1026.8
20260502005851 75 103 2.6 6.1 0.00 0.00 0.00 28 1026.7
20260502005606 75 76 2.6 8.7 0.00 0.00 0.00 26 1026.7
20260502005336 75 96 4.3 8.7 0.00 0.00 0.00 27 1026.8
20260502004349 75 128 2.6 7.8 0.00 0.00 0.00 27 1026.8
20260502004337 75 94 1.7 7.8 0.00 0.00 0.00 27 1026.8
20260502003350 75 97 4.3 7.8 0.00 0.00 0.00 27 1026.8
20260502002849 75 89 3.5 7.8 0.00 0.00 0.00 26 1026.9
20260502002350 75 116 1.7 9.6 0.00 0.00 0.00 26 1026.9
20260502001849 75 97 4.3 9.6 0.00 0.00 0.00 26 1027.0
20260502001613 76 118 4.3 9.6 0.00 0.00 0.00 25 1027.0
20260502000849 76 72 2.6 8.7 0.00 0.00 0.00 27 1027.0
20260502000350 76 58 1.7 8.7 0.00 0.00 0.00 27 1027.0
20260502000109 75 138 4.3 8.7 0.00 0.00 0.00 26 1027.1
20260501235349 75 137 4.3 6.1 0.00 0.00 0.00 26 1027.2
20260501234849 75 117 2.6 7.8 0.00 0.00 0.00 26 1027.1
20260501234348 74 141 2.6 7.8 0.00 0.00 0.00 26 1027.1
20260501233849 75 133 3.5 5.2 0.00 0.00 0.00 26 1027.2
20260501233348 75 118 2.6 5.2 0.00 0.00 0.00 26 1027.2
20260501232849 75 151 3.5 6.1 0.00 0.00 0.00 25 1027.2
20260501232348 75 158 2.6 6.1 0.00 0.00 0.00 26 1027.2
20260501231849 74 110 1.7 6.1 0.00 0.00 0.00 26 1027.3
20260501231347 74 82 1.7 6.1 0.00 0.00 0.00 26 1027.5
20260501230848 74 127 3.5 7.8 0.00 0.00 0.00 27 1027.3
20260501230347 74 113 2.6 7.8 0.00 0.00 0.00 27 1027.5
20260501225847 74 96 0.0 6.1 0.00 0.00 0.00 27 1027.6
20260501225348 74 113 2.6 6.1 0.00 0.00 0.00 26 1027.6
20260501224847 74 144 2.6 4.3 0.00 0.00 0.00 27 1027.6
20260501224348 73 133 3.5 7.8 0.00 0.00 0.00 26 1027.7
20260501223847 73 106 3.5 7.8 0.00 0.00 0.00 27 1027.7
20260501223348 74 131 5.2 7.8 0.00 0.00 0.00 26 1027.7
20260501223113 74 134 3.5 7.8 0.00 0.00 0.00 26 1027.7
20260501222346 74 120 2.6 8.7 0.00 0.00 0.00 25 1027.7
20260501222105 74 144 4.3 8.7 0.00 0.00 0.00 26 1027.8
20260501221345 74 144 3.5 6.1 0.00 0.00 0.00 25 1027.8
20260501220847 74 199 4.3 6.1 0.00 0.00 0.00 25 1027.8
20260501220612 74 135 2.6 7.8 0.00 0.00 0.00 27 1027.9
20260501215847 74 145 3.5 7.8 0.00 0.00 0.00 25 1028.0
20260501215608 74 135 4.3 7.8 0.00 0.00 0.00 26 1027.9
20260501214847 74 209 4.3 7.8 0.00 0.00 0.00 26 1028.0
20260501214614 75 107 3.5 7.8 0.00 0.00 0.00 25 1028.0
20260501213846 75 38 2.6 5.2 0.00 0.00 0.00 25 1028.0
20260501213346 75 162 0.9 7.8 0.00 0.00 0.00 25 1028.0
20260501212846 75 140 4.3 7.8 0.00 0.00 0.00 25 1028.1
20260501212607 75 134 1.7 4.3 0.00 0.00 0.00 26 1028.1
20260501212113 74 226 0.9 3.5 0.00 0.00 0.00 27 1028.2
20260501211346 74 75 0.9 4.3 0.00 0.00 0.00 27 1028.2
20260501210845 74 41 0.9 5.2 0.00 0.00 0.00 26 1028.2
20260501210834 74 76 2.6 7.8 0.00 0.00 0.00 26 1028.2
20260501210106 74 99 4.3 7.8 0.00 0.00 0.00 24 1028.3
20260501205344 75 72 3.5 6.1 0.00 0.00 0.00 25 1028.3
20260501205113 75 85 2.6 6.1 0.00 0.00 0.00 26 1028.4
20260501204349 75 137 2.6 9.6 0.00 0.00 0.00 25 1028.5
20260501203847 75 133 4.3 9.6 0.00 0.00 0.00 26 1028.4
20260501203601 75 72 3.5 9.6 0.00 0.00 0.00 25 1028.4
20260501202845 75 99 2.6 8.7 0.00 0.00 0.00 25 1028.5
20260501202606 75 262 2.6 5.2 0.00 0.00 0.00 25 1028.6
20260501201844 74 157 1.7 5.2 0.00 0.00 0.00 25 1028.7
20260501201344 74 179 3.5 5.2 0.00 0.00 0.00 25 1028.8
20260501200843 74 203 2.6 5.2 0.00 0.00 0.00 25 1028.8
20260501200606 73 99 1.7 7.8 0.00 0.00 0.00 26 1028.8
20260501195845 73 121 2.6 7.8 0.00 0.00 0.00 26 1028.8
20260501195344 73 125 2.6 6.1 0.00 0.00 0.00 26 1028.9
20260501194843 74 107 2.6 6.1 0.00 0.00 0.00 26 1028.9
20260501194344 73 157 1.7 6.1 0.00 0.00 0.00 25 1029.1
20260501193842 73 195 3.5 6.1 0.00 0.00 0.00 25 1029.1
20260501193342 73 142 2.6 7.8 0.00 0.00 0.00 27 1029.2
20260501192843 72 106 3.5 7.8 0.00 0.00 0.00 28 1029.2
20260501192342 72 151 3.5 7.8 0.00 0.00 0.00 28 1029.3
20260501191843 72 147 1.7 5.2 0.00 0.00 0.00 29 1029.3
20260501191342 71 94 2.6 7.8 0.00 0.00 0.00 28 1029.4
20260501190844 71 133 3.5 7.8 0.00 0.00 0.00 27 1029.4
20260501190342 72 82 2.6 6.1 0.00 0.00 0.00 28 1029.5
20260501185842 71 121 1.7 6.1 0.00 0.00 0.00 27 1029.5
20260501185341 71 120 2.6 6.1 0.00 0.00 0.00 31 1029.6
20260501184842 70 117 2.6 6.1 0.00 0.00 0.00 33 1029.6
20260501184342 70 102 3.5 7.8 0.00 0.00 0.00 31 1029.6
20260501183841 70 144 3.5 7.8 0.00 0.00 0.00 32 1029.8
20260501183342 69 63 1.7 6.1 0.00 0.00 0.00 33 1029.7
20260501182841 69 71 1.7 6.1 0.00 0.00 0.00 33 1029.8
20260501182341 68 113 0.9 5.2 0.00 0.00 0.00 33 1029.8
20260501182101 68 21 0.9 5.2 0.00 0.00 0.00 34 1029.9
20260501181341 68 89 1.7 4.3 0.00 0.00 0.00 34 1030.0
20260501180841 67 69 0.9 4.3 0.00 0.00 0.00 36 1030.0
20260501180336 67 83 2.6 4.3 0.00 0.00 0.00 34 1030.0
20260501175840 66 121 1.7 5.2 0.00 0.00 0.00 36 1030.0
20260501175340 66 142 1.7 5.2 0.00 0.00 0.00 37 1030.0
20260501174842 66 38 1.7 3.5 0.00 0.00 0.00 35 1030.1
20260501174340 65 93 1.7 4.3 0.00 0.00 0.00 35 1030.2
20260501173841 65 83 1.7 4.3 0.00 0.00 0.00 39 1030.2
20260501173340 65 102 0.9 4.3 0.00 0.00 0.00 38 1030.2
20260501172840 65 111 1.7 4.3 0.00 0.00 0.00 39 1030.3
20260501172337 64 34 0.9 1.7 0.00 0.00 0.00 41 1030.4
20260501172058 63 144 0.9 3.5 0.00 0.00 0.00 40 1030.4
20260501171340 63 61 1.7 3.5 0.00 0.00 0.00 41 1030.4
20260501170841 62 61 0.0 2.6 0.00 0.00 0.00 41 1030.4
20260501170340 62 48 0.0 2.6 0.00 0.00 0.00 41 1030.6
20260501170106 62 45 1.7 3.5 0.00 0.00 0.00 43 1030.7
20260501165339 61 96 1.7 3.5 0.00 0.00 0.00 42 1030.7
20260501164839 61 78 1.7 2.6 0.00 0.00 0.00 44 1030.8
20260501164339 61 58 0.9 2.6 0.00 0.00 0.00 44 1030.8
20260501163837 61 133 0.9 2.6 0.00 0.00 0.00 45 1030.8
20260501163554 60 148 0.0 2.6 0.00 0.00 0.00 46 1030.8
20260501162839 60 248 0.9 2.6 0.00 0.00 0.00 45 1030.9
20260501162339 60 54 0.9 2.6 0.00 0.00 0.00 47 1031.0
20260501161840 58 200 0.9 2.6 0.00 0.00 0.00 50 1031.2
20260501161600 57 244 0.0 2.6 0.00 0.00 0.00 49 1031.1
20260501160839 57 259 0.9 2.6 0.00 0.00 0.00 48 1031.2
20260501160337 57 45 0.0 4.3 0.00 0.00 0.00 48 1031.3
20260501160100 57 92 0.9 4.3 0.00 0.00 0.00 51 1031.3
20260501155339 57 265 0.0 0.9 0.00 0.00 0.00 53 1031.4
20260501155320 55 148 0.0 0.9 0.00 0.00 0.00 55 1031.4
20260501154339 54 154 0.0 0.9 0.00 0.00 0.00 57 1031.4
20260501153837 54 259 0.0 0.9 0.00 0.00 0.00 58 1031.4
20260501153339 53 340 0.0 0.9 0.00 0.00 0.00 59 1031.5
20260501153323 52 28 0.0 0.0 0.00 0.00 0.00 61 1031.5
20260501152337 51 72 0.0 0.9 0.00 0.00 0.00 61 1031.6
20260501152102 51 72 0.0 0.9 0.00 0.00 0.00 64 1031.6
20260501151607 50 114 0.0 0.0 0.00 0.00 0.00 66 1031.6
20260501151058 50 114 0.0 0.0 0.00 0.00 0.00 66 1031.6
20260501150335 50 116 0.0 0.0 0.00 0.00 0.00 66 1031.6
20260501150100 50 147 0.0 0.0 0.00 0.00 0.00 68 1031.7
20260501145336 49 147 0.0 0.0 0.00 0.00 0.00 70 1031.7